Regional Weather Roundup
Issued by NWS Wakefield, VA

Home | Current Version | Previous Version | Graphics & Text | Print | Product List | Glossary On
Versions: 1 2 3 4 5 6 7 8 9 10 11 12 13 14 15 16 17 18 19 20 21 22 23 24 25 26 27 28 29 30 31 32 33 34 35 36 37 38 39 40 41 42 43 44 45 46 47 48 49 50
000
ASUS41 KAKQ 270310
RWRAKQ

REGIONAL WEATHER ROUNDUP
NATIONAL WEATHER SERVICE WAKEFIELD VA
1000 PM EST FRI DEC 26 2014

Note: "fair" indicates few or no clouds below 12,000 feet with no
significant weather and/or obstructions to visibility. * = Denotes
station may not report precipitation (e.g., rain,snow,etc.),
thunder or fog.

VAZ042-051-052>054-056-270400-
NORTHERN VIRGINIA

CITY           SKY/WX    TMP DP  RH WIND       PRES   REMARKS
WASH NATIONAL  PTCLDY    42  34  73 CALM      30.29F
DULLES         PTCLDY    30  27  88 CALM      30.27F
FORT BELVOIR   CLEAR     32  30  92 CALM      30.29F
QUANTICO       CLEAR     34  31  88 NW5       30.30F
FREDERICKSBRG* CLEAR     35  32  92 CALM      30.28S
STAFFORD*      CLEAR     31  31 100 CALM      30.33S
WARRENTON      CLEAR     29  29 100 CALM      30.26F
CULPEPER*      CLEAR     30  28  93 CALM      30.28F
MANASSAS*      CLEAR     30  30 100 CALM      30.29R
LEESBURG*      CLEAR     32  32 100 SW3       30.28S
WINCHESTER     PTCLDY    34  28  80 CALM      30.25S
FRONT ROYAL*   PTCLDY    34  30  86 CALM      30.25S
LURAY*         PTCLDY    34  32  93 CALM      30.25S
$$

VAZ048-049-060>072-079>083-270400-
CENTRAL AND SOUTH CENTRAL VIRGINIA

CITY           SKY/WX    TMP DP  RH WIND       PRES   REMARKS
RICHMOND       PTCLDY    35  30  82 CALM      30.30R
CHESTERFIELD*  MOCLDY    34  21  60 CALM      30.30S
PETERSBURG*    MOCLDY    33  33  99 CALM      30.31S
HANOVER        PTCLDY    32  30  92 CALM      30.30S
TAPPAHANNOCK*  PTCLDY    33  31  91 CALM      30.30F
QUINTON*       PTCLDY    33  31  96 CALM      30.30S
CHARLOTTSVILLE PTCLDY    42  31  64 W3        30.27R
GORDONSVILLE*  PTCLDY    31  29  94 CALM      30.27S
ORANGE*        FAIR      32  32 100 CALM      30.28F
LOUISA*        PTCLDY    34  30  86 S3        30.25F
BUMPASS*       PTCLDY    33  31  93 CALM      30.27F
FARMVILLE*     MOCLDY    37  36  96 SW3       30.26F
CREWE*         MOCLDY    35  33  92 CALM      30.28S
FORT PICKETT*  MOCLDY    39  35  84 CALM      30.29F
CHASE CITY*    MOCLDY    39  38  97 CALM      30.29S
CLARKSVILLE*   MOCLDY    39  36  87 CALM      30.28F
SOUTH HILL*    MOCLDY    36  35  95 CALM      30.35S
LAWRENCEVILLE* MOCLDY    38  37  95 CALM      30.29F
EMPORIA*       CLOUDY    34  34 100 CALM      30.32S
$$

VAZ088>098-270400-
SOUTHEAST VIRGINIA

CITY           SKY/WX    TMP DP  RH WIND       PRES   REMARKS
NORFOLK        CLEAR     41  38  89 CALM      30.32R
VIRGINIA BEACH CLEAR     38  35  89 CALM      30.31S
NORFOLK NAVAL  PTCLDY    45  39  79 S3        30.33R
WEST POINT*    CLEAR     33  31  90 CALM      30.32S
SALUDA*        FAIR      34  33  96 S6        30.31S
NEWPORT NEWS   FOG       37  34  89 CALM      30.32R VSB 1/4
LANGLEY AFB    CLEAR     37  36  95 SW2       30.32S FOG
FORT EUSTIS    PTCLDY    37  37 100 E2        30.30S
WILLIAMSBURG*  PTCLDY    37  36  93 SE3       30.31F
HR EXEC AP*    CLEAR     32  28  86 CALM      30.34S
FRANKLIN*      CLOUDY    34  34 100 CALM      30.31S
WAKEFIELD      MOCLDY    36  33  89 CALM      30.31S
$$

VAZ020-022-025-037-045-270400-
WEST CENTRAL AND SOUTHWEST VIRGINIA

CITY           SKY/WX    TMP DP  RH WIND       PRES   REMARKS
STAUNTON*      PTCLDY    34  26  73 CALM      30.27S
WAYNESBORO*    PTCLDY    38  24  58 CALM      30.26R
HOT SPRINGS VA MOCLDY    42  17  37 W12       30.21F
LYNCHBURG      MOCLDY    39  32  76 CALM      30.28S
DANVILLE       MOCLDY    40  34  79 SW3       30.30S
SOUTH BOSTON*  MOCLDY    37  34  90 CALM      30.28F
MARTINSVILLE   CLOUDY    36  36  99 CALM      30.31R
ROANOKE        MOCLDY    43  30  60 CALM      30.28F
BLACKSBURG     CLOUDY    34  27  75 CALM      30.29F
DUBLIN*        CLOUDY    41  29  61 W5        30.28S
MARION*        CLOUDY    37  28  68 CALM      30.30S
HILLSVILLE*    CLOUDY    44  28  52 S5        30.27F
RICHLANDS*     CLOUDY    45  13  27 S3        30.25S
WISE*          CLOUDY    45  25  45 S9        30.23F
ABINGDON*      MOCLDY    42  26  54 CALM      30.27R
$$

MDZ021>025-VAZ099-100-270400-
SOUTHERN MARYLAND AND THE DELMARVA PENINSULA

CITY           SKY/WX    TMP DP  RH WIND       PRES   REMARKS
PATUXENT RIVER PTCLDY    31  29  92 CALM      30.30F
BAY BRIDGE APT   N/A     41  34  75 S6        30.30S
LEONARDTOWN    CLEAR     32  32 100 CALM      30.31F
DOVER          CLEAR     38  33  83 S7        30.28S
GEORGETOWN     CLEAR     36  31  82 SW3       30.31S
EASTON         CLEAR     39  33  79 CALM      30.34
CAMBRIDGE      CLEAR     36  32  87 CALM      30.30F
SALISBURY      PTCLDY    32  28  85 CALM      30.31S
OCEAN CITY     CLEAR     31  29  92 CALM      30.32R
WALLOPS ISLAND PTCLDY    35  33  92 CALM      30.32S
ACCOMACK*      CLEAR     34  32  93 S5        30.30F
$$

NCZ012>017-030>032-270400-
NORTH CENTRAL AND EASTERN NORTH CAROLINA

CITY           SKY/WX    TMP DP  RH WIND       PRES   REMARKS
ROANOKE RAPIDS MOCLDY    36  36 100 SW3       30.31S
RALEIGH        MOCLDY    40  34  79 CALM      30.32S
ELIZABETH CITY PTCLDY    41  36  82 CALM      30.32F
AHOSKIE*       MOCLDY    37  35  94 CALM      30.32S
EDENTON*         N/A     37  35  92 CALM      30.33S
CURRITUCK*     PTCLDY    39  37  93 CALM      30.32F
KILL DEVIL HLS PTCLDY    46  41  84 CALM      30.31R
MANTEO         PTCLDY    37  36  93 CALM      30.33R
CAPE HATTERAS  CLEAR     39  39 100 N3        30.33R
TARBORO*       MOCLDY    40  38  95 CALM      30.34R
GOLDSBORO      MOCLDY    39  38  98 CALM      30.32R FOG
WASHINGTON     CLEAR     38  36  92 CALM      30.34S
GREENVILLE     MOCLDY    37  37 100 CALM      30.34S
NEW BERN       CLEAR     39  36  89 CALM      30.34S
WILMINGTON     CLEAR     40  38  93 CALM      30.33S
$$

VAZ048-270400-
ELSEWHERE

CITY           SKY/WX    TMP DP  RH WIND       PRES   REMARKS
HARRISBURG PA  PTCLDY    32  28  85 CALM      30.25R
BALTIMORE      PTCLDY    36  30  79 CALM      30.27F
ANNAPOLIS      PTCLDY    37  34  89 CALM      30.29F
ANDREWS AFB    CLEAR     34  30  83 SE1       30.28F
PHILADELPHIA   PTCLDY    40  31  70 SW7       30.27F
HENDERSON NC   PTCLDY    40  35  81 S6        30.30S
GREENSBORO     MOCLDY    40  33  76 S6        30.28F
ROCKY MOUNT    MOCLDY    39  37  92 CALM      30.33R
$$

VAZ100-270400-
MARINE

STATION/POSITION TIME  TEMP    WIND        PRES    WAVE   SWELL
                       AIR SEA DIR/SP/G            HT/PER HT/PER
                 (UTC) (F)     (DEG/KT/KT) (MB)    (FT/S) (FT/S)
CAPE MAY NJ      0300   43 46  230/  8/ 10 1025.7F
LEWES DE         0300   41 44  230/  5/  7 1026.0F
15NM E FENWICK I 0300   45 45              1026.1R   2/12
OCEAN-CITY-INLET 0300   41 45  280/  2/  3 1026.2F
WACHAPREAGUE VA  0300   38 48     CALM     1026.3F
THOMAS POINT MD  0300   42 43  180/  8/  8 1026.8F
GOOSES REEF MD   0300   42     VRB  6/  6  1025.1F
COVE POINT MD    0300   41     190/  5/  6 1025.9F
SOLOMONS ISLAND  0300      43                N/A
BISHOPS HEAD MD  0300   43 45  170/  4/  5 1025.6F
PINEY POINT MD   0300          170/  3/  3   N/A
POTOMAC MD       0300   43     200/  4/  4 1025.3S
CAMBRIDGE MD     0300   39 43  210/  2/  3 1026.1S
LEWISETTA VA     0300   41 44     CALM     1025.8F
RAPPAHANNOCK LGT 0300          150/  6/  6 1026.7F
STINGRAY PT      0300   44     190/  4/  4 1026.7F
YORK RVR RNG VA  0300   44     190/  4/  4 1025.8S
YORKTOWN VA      0300   43 46  170/  1/  2 1026.2R
JAMESTOWN VA     0300   42      CALM  /  2   N/A
DOMINION TERM VA 0300   46     150/  2/  2 1026.4S
KIPTOPEKE VA     0300      51  150/  3/  4   N/A
CHES BAY BRIDGE  0300   45 45  150/  5/  6 1026.0S
CAPE HENRY VA    0300   45     160/  5/  6 1025.3R
CHESAPEAKE LGHT  0200   48     120/  7/  7 1027.3R
WILLOUBY STN VA  0300   45     160/  6/  6 1026.9R
S CRANEY ISL VA  0300          200/  3/  3 1026.4R
CAPE HENRY BUOY  0300      48                N/A     2/13   2/13
1ST LANDING BUOY 0300   45     160/  4/  4 1026.0S
CAPE CHARLES BUO 0300      47                N/A     1/ 9   2/ 9
64NM E OF VA BCH 0300   50 52   CALM  /  4 1026.6R   2/ 9   2/ 9
DUCK PIER NC     0300   50 51  240/  3/  4 1025.8F
44100 DUCK FRF   0300      50                N/A     2/13   2/13
44056 DUCK FRF   0300      50                N/A     2/13   2/13
OREGON INLET NC  0300   47 54  130/  5/  5 1026.9R
HATTERAS NC      0300   50 56   CALM  /  1 1027.4R
DIAMOND SHLS NC  0300   55                 1027.1R   3/ 7
CAPE LOOKOUT NC  0200   55      20/  3/  3 1026.7R
$$



USA.gov is the U.S. government's official web portal to all federal, state and local government web resources and services.